This is the latest recevied weather packets stored in our database for station/object SV9TNF-56. If no packets are shown the sender has not sent any weather packets the latest 10 day(s).
| Time | Temp. | Humidity | Pressure | Rain* | Wind** | Luminosity | Snow |
|---|---|---|---|---|---|---|---|
| 1787899914 | 27.78° C | 55% | 1018.6 hPa | 0 mm | 5.36 m/s, 212° | - | - |
| 1787899614 | 27.22° C | 56% | 1018.3 hPa | 0 mm | 4.47 m/s, 156° | - | - |
| 1787899314 | 27.22° C | 57% | 1018.6 hPa | 0 mm | 10.28 m/s, 226° | - | - |
| 1787899014 | 27.22° C | 57% | 1018.6 hPa | 0 mm | 8.94 m/s, 257° | - | - |
| 1787898714 | 27.22° C | 55% | 1018.6 hPa | 0 mm | 7.6 m/s, 234° | - | - |
| 1787898414 | 27.22° C | 55% | 1018.3 hPa | 0 mm | 2.24 m/s, 127° | - | - |
| 1787898113 | 27.22° C | 56% | 1018.6 hPa | 0 mm | 4.92 m/s, 132° | - | - |
| 1787897814 | 27.22° C | 56% | 1018.6 hPa | 0 mm | 4.92 m/s, 154° | - | - |
| 1787897513 | 26.67° C | 57% | 1018.6 hPa | 0 mm | 3.58 m/s, 172° | - | - |
| 1787897213 | 26.67° C | 57% | 1018.6 hPa | 0 mm | 7.6 m/s, 126° | - | - |
| 1787896913 | 26.67° C | 58% | 1018.6 hPa | 0 mm | 6.26 m/s, 47° | - | - |
| 1787896613 | 26.67° C | 60% | 1018.6 hPa | 0 mm | 1.79 m/s, 182° | - | - |
| 1787896313 | 26.67° C | 59% | 1018.3 hPa | 0 mm | 6.26 m/s, 136° | - | - |
| 1787896013 | 26.67° C | 60% | 1018.3 hPa | 0 mm | 8.05 m/s, 114° | - | - |
| 1787895713 | 26.67° C | 60% | 1018.6 hPa | 0 mm | 8.05 m/s, 73° | - | - |
| 1787895413 | 26.67° C | 59% | 1018.3 hPa | 0 mm | 10.28 m/s, 89° | - | - |
| 1787895113 | 26.11° C | 60% | 1018.3 hPa | 0 mm | 9.83 m/s, 73° | - | - |
| 1787894813 | 26.11° C | 59% | 1018.3 hPa | 0 mm | 8.94 m/s, 96° | - | - |
| 1787894512 | 26.11° C | 58% | 1018.3 hPa | 0 mm | 8.05 m/s, 132° | - | - |
| 1787894212 | 26.11° C | 58% | 1018 hPa | 0 mm | 9.83 m/s, 102° | - | - |
| 1787893912 | 26.11° C | 57% | 1018.3 hPa | 0 mm | 5.36 m/s, 104° | - | - |
| 1787893612 | 26.11° C | 57% | 1018.3 hPa | 0 mm | 7.6 m/s, 120° | - | - |
| 1787893312 | 26.67° C | 57% | 1018 hPa | 0 mm | 6.26 m/s, 105° | - | - |
| 1787893012 | 26.67° C | 57% | 1018 hPa | 0 mm | 10.28 m/s, 102° | - | - |
| 1787892712 | 26.67° C | 57% | 1018.3 hPa | 0 mm | 7.6 m/s, 96° | - | - |
* Rain latest hour (hover to see other rain measurements)
** Current wind speed in m/s (hover to see current wind gust speed)